Home > Weather > Vevay > Past weeks

Flag for USA Weather for the Past 2 Weeks in Vevay, Indiana, USA

Now
55 °F

Mostly cloudy.


Feels Like: 55 °F
Forecast: 54 / 64 °F
Wind: 3 mph from Northwest

Location: Cincinnati / Northern Kentucky International Airport

Current Time: May 3, 2016 at 2:51:47 AM

Latest Report: May 3, 2016 at 1:52 AM


Visibility: 8 mi

Pressure: 29.90 "Hg

Humidity: 90%

Dew Point: 52 °F

Location of VevayLocation

Historic Weather in Vevay — Graph

°F

Vevay Temperature Yesterday

Maximum temperature yesterday: 64 °F (at 10:52 AM)
Minimum temperature yesterday: 54 °F (at 11:52 PM)
Average temperature yesterday: 61 °F

High & Low Weather Summary for the Past Weeks

 TemperatureHumidityPressure
High83 °F (Apr 18, 5:52 PM)100% (Apr 26, 11:52 PM)30.33 "Hg (Apr 26, 11:52 PM)
Low46 °F (Apr 24, 5:52 AM)19% (Apr 18, 6:52 PM)29.71 "Hg (Apr 26, 4:52 PM)
Average64 °F68%29.96 "Hg
* Reported Apr 18 12:52 AM — May 3 12:52 AM, Vevay, Weather by CustomWeather, © 2016

Note: Actual official high and low records may vary slightly from our data, if they occured in-between our weather recording intervals... More about our weather records

Advertising

Vevay Weather History for the Previous 24 Hours

Scroll right to see more
 ConditionsComfort  
Time TempWeatherWind HumidityBarometerVisibility
12:52 AM
Tue, May 3
55 °FPassing clouds.5 mph90%29.90 "Hg10 mi
11:52 PM
Mon, May 2
54 °FPartly cloudy.3 mph90%29.93 "Hg10 mi
10:52 PM56 °FPassing clouds.5 mph84%29.93 "Hg10 mi
9:52 PM57 °FPartly cloudy.6 mph81%29.92 "Hg10 mi
8:52 PM59 °FPartly sunny.9 mph75%29.91 "Hg10 mi
7:52 PM61 °FMostly cloudy.9 mph72%29.91 "Hg10 mi
6:52 PM62 °FBroken clouds.10 mph70%29.90 "Hg10 mi
5:52 PM64 °FBroken clouds.9 mph65%29.90 "Hg10 mi
4:52 PM63 °FMore clouds than sun.7 mph65%29.90 "Hg10 mi
3:52 PM63 °FMostly cloudy.7 mph65%29.92 "Hg10 mi
2:52 PM64 °FBroken clouds.9 mph68%29.94 "Hg10 mi
1:52 PM64 °FMostly cloudy.6 mph68%29.95 "Hg10 mi
12:52 PM64 °FCloudy.6 mph65%29.94 "Hg10 mi
11:52 AM63 °FMore clouds than sun.10 mph70%29.96 "Hg10 mi
10:52 AM64 °FBroken clouds.6 mph73%29.96 "Hg10 mi
10:04 AM63 °FBroken clouds.9 mph77%29.99 "Hg10 mi
8:52 AM60 °FLow clouds.6 mph90%29.96 "Hg8 mi
8:04 AM59 °FLow clouds.8 mph94%29.96 "Hg8 mi
7:52 AM59 °FLow clouds.6 mph93%29.94 "Hg7 mi
6:52 AM59 °FMostly cloudy.8 mph96%29.92 "Hg7 mi
5:52 AM58 °FLow clouds.No wind97%29.89 "Hg8 mi
4:52 AM59 °FClear.8 mph96%29.88 "Hg9 mi
3:52 AM60 °FClear.6 mph93%29.88 "Hg10 mi
2:52 AM61 °FPassing clouds.3 mph97%29.87 "Hg8 mi
Weather by CustomWeather, © 2016

See weather overviewHow to use our weather pages